Back to catalog

STARLINK-2443

AliveCommunicationsVLEO
NORAD 48107·PAYLOAD·🇺🇸 United States

Launched Apr 7, 2021 from Cape Canaveral Space Force Station

Loading…

Next Passes (next 24 hours)

TLE

FreshSource: CelesTrak SupGP

Epoch: Sep 14, 2026, 20:45 UTC

1 48107C 21027R   26257.86506944 -.00018137  00000+0 -58326-3 0  2571
2 48107  53.1597 352.4036 0001306  77.8488   3.9964 15.31710490    10

Track STARLINK-2443 in real time with AllMySat

Download on the App Store